time,Ferment Beer Sensor/value[degF],Ferment Beer Setting/setting[degF],Ambient Temp Sensor/value[degF],Ferment Fridge Sensor/value[degF],Ferment Heat Actuator/state,Ferment Cool Actuator/state
1596856140,67.88749999999993,75.00004882812493,77.51428571428565,110.17142857142849,1,0
1596856200,67.84999999999992,75.00004882812493,77.47499999999992,110.22499999999992,1,0
1596856260,67.88749999999992,75.00004882812493,77.41624999999995,110.26624999999993,1,0
1596856320,67.94999999999993,75.00004882812493,77.17499999999993,110.27499999999992,1,0
1596856380,67.93249999999992,75.00004882812493,77.07874999999993,110.41249999999994,1,0
1596856440,67.93749999999994,75.00004882812493,76.88749999999993,110.42499999999994,1,0
1596856500,67.99999999999993,75.00004882812493,76.68499999999995,110.37874999999993,1,0
1596856560,68.03749999999994,75.00004882812493,76.58749999999992,110.37499999999994,1,0
1596856620,68.07874999999994,75.00004882812493,76.44874999999993,110.46874999999996,1,0
1596856680,68.08749999999993,75.00004882812493,76.51249999999995,110.47499999999994,1,0
1596856740,68.04499999999994,75.00004882812493,76.32499999999993,110.52499999999993,1,0
1596856800,68.11249999999993,75.00004882812493,76.27499999999993,110.47499999999994,1,0
1596856860,68.03749999999994,75.00004882812493,76.13749999999993,110.57499999999993,1,0
1596856920,68.13749999999993,75.00004882812493,76.08749999999993,110.52499999999993,1,0
1596856980,68.19124999999994,75.00004882812493,75.94249999999995,110.53624999999992,1,0
1596857040,68.23749999999994,75.00004882812493,75.78749999999992,110.51249999999995,1,0
1596857100,68.17499999999993,75.00004882812493,75.79999999999993,110.54999999999993,1,0
1596857160,68.24999999999993,75.00004882812493,75.76249999999992,110.59999999999992,1,0
1596857220,68.17499999999993,75.00004882812493,75.72499999999994,110.51249999999995,1,0
1596857280,68.29531249999992,75.00004882812493,75.62187499999993,110.56718749999995,1,0
1596857340,68.28749999999994,75.00004882812493,75.49999999999994,110.54999999999993,1,0
1596857400,68.28749999999992,75.00004882812493,75.32499999999995,110.59999999999994,1,0
1596857460,68.37499999999994,75.00004882812493,75.28749999999994,110.58749999999993,1,0
1596857520,68.38749999999993,75.00004882812493,75.29999999999993,110.56249999999994,1,0
1596857580,68.39999999999992,75.00004882812493,75.27499999999992,110.51249999999993,1,0
1596857640,68.39999999999992,75.00004882812493,75.28749999999994,110.49999999999994,1,0
1596857700,68.39374999999993,75.00004882812493,75.42499999999993,110.50249999999994,1,0
1596857760,68.42499999999991,75.00004882812493,75.57499999999995,110.48749999999993,1,0
1596857820,68.46124999999994,75.00004882812493,75.63874999999993,110.50249999999994,1,0
1596857880,68.47499999999995,75.00004882812493,75.69999999999993,110.43749999999994,1,0
1596857940,68.52874999999992,75.00004882812493,75.82999999999994,110.44624999999994,1,0
1596858000,68.47499999999994,75.00004882812493,75.97499999999994,110.37499999999994,1,0
1596858060,68.56249999999994,75.00004882812493,76.01249999999993,110.48749999999994,1,0
1596858120,68.63749999999995,75.00004882812493,75.96249999999992,110.46249999999992,1,0
1596858180,68.56249999999994,75.00004882812493,75.90312499999995,110.46874999999994,1,0
1596858240,68.57499999999993,75.00004882812493,75.81249999999993,110.48749999999994,1,0
1596858300,68.68749999999994,75.00004882812493,75.62499999999994,110.52499999999995,1,0
1596858360,68.68749999999994,75.00004882812493,75.52499999999992,110.49999999999993,1,0
1596858420,68.66249999999994,75.00004882812493,75.49999999999994,110.48749999999994,1,0
1596858480,68.63749999999992,75.00004882812493,75.38749999999993,110.53749999999994,1,0
1596858540,68.77499999999993,75.00004882812493,75.56249999999994,110.56249999999994,1,0
1596858600,68.73749999999993,75.00004882812493,75.64999999999993,110.54999999999994,1,0
1596858660,68.73124999999993,75.00004882812493,75.67249999999993,110.60374999999992,1,0
1596858720,68.72499999999995,75.00004882812493,75.83749999999992,110.53749999999997,1,0
1596858780,68.74999999999994,75.00004882812493,75.97499999999994,110.58749999999992,1,0
1596858840,68.79999999999994,75.00004882812493,75.83749999999993,110.56249999999993,1,0
1596858900,68.84374999999994,75.00004882812493,75.76249999999995,110.52499999999993,1,0
1596858960,68.81562499999994,75.00004882812493,75.69218749999993,110.59531249999995,1,0
1596859020,68.89999999999992,75.00004882812493,75.59999999999994,110.64999999999992,1,0
1596859080,68.92499999999993,75.00004882812493,75.47499999999994,110.67499999999993,1,0
1596859140,68.93749999999993,75.00004882812493,75.47499999999992,110.59999999999995,1,0
1596859200,68.94999999999993,75.00004882812493,75.44999999999993,110.61249999999991,1,0
1596859260,68.92499999999993,75.00004882812493,75.42499999999993,110.63749999999993,1,0
1596859320,68.89999999999993,75.00004882812493,75.49999999999994,110.67499999999993,1,0
1596859380,68.97499999999992,75.00004882812493,75.63749999999993,110.67499999999993,1,0
1596859440,68.99999999999994,75.00004882812493,75.77499999999993,110.69999999999992,1,0
1596859500,69.03499999999994,75.00004882812493,75.86374999999995,110.73874999999994,1,0
1596859560,69.04999999999993,75.00004882812493,75.86249999999993,110.76249999999992,1,0
1596859620,69.02499999999992,75.00004882812493,75.92499999999994,110.72499999999992,1,0
1596859680,69.03749999999995,75.00004882812493,75.98749999999994,110.59999999999995,1,0
1596859740,69.02374999999992,75.00004882812493,75.98749999999993,110.71624999999992,1,0
1596859800,69.11249999999994,75.00004882812493,76.16249999999995,110.79999999999994,1,0
1596859860,69.12499999999994,75.00004882812493,76.28749999999994,110.76249999999993,1,0
1596859920,69.23749999999993,75.00004882812493,76.14999999999993,110.78749999999995,1,0
1596859980,69.14999999999993,75.00004882812493,76.04999999999994,110.77499999999992,1,0
1596860040,69.18749999999994,75.00004882812493,75.81249999999994,110.78749999999992,1,0
1596860100,69.23749999999993,75.00004882812493,75.68749999999994,110.81249999999994,1,0
1596860160,69.26249999999995,75.00004882812493,75.52499999999992,110.88749999999992,1,0
1596860220,69.29999999999994,75.00004882812493,75.43749999999994,110.86249999999993,1,0
1596860280,69.26562499999993,75.00004882812493,75.21406249999994,110.89062499999993,1,0
1596860340,69.36249999999993,75.00004882812493,75.14999999999993,110.84999999999992,1,0
1596860400,69.37499999999994,75.00004882812493,75.08749999999992,110.84999999999992,1,0
1596860460,69.40624999999993,75.00004882812493,74.98624999999993,110.91874999999993,1,0
1596860520,69.33749999999993,75.00004882812493,74.88749999999993,110.91249999999994,1,0
1596860580,69.41749999999993,75.00004882812493,74.81749999999994,110.91874999999993,1,0
1596860640,69.39999999999993,75.00004882812493,74.68749999999994,110.91249999999992,1,0
1596860700,69.38749999999995,75.00004882812493,74.78749999999995,110.92499999999991,1,0
1596860760,69.44999999999995,75.00004882812493,74.76249999999993,110.96249999999993,1,0
1596860820,69.41249999999992,75.00004882812493,74.67499999999994,110.96249999999993,1,0
1596860880,69.48749999999993,75.00004882812493,74.74999999999994,110.91249999999994,1,0
1596860940,69.50749999999994,75.00004882812493,74.81749999999994,110.94124999999993,1,0
1596861000,69.41249999999994,75.00004882812493,74.89999999999993,110.97499999999994,1,0
1596861060,69.43749999999994,75.00004882812493,74.92499999999993,110.97499999999994,1,0
1596861120,69.54999999999993,75.00004882812493,74.87499999999994,110.93749999999993,1,0
1596861180,69.60874999999993,75.00004882812493,74.97499999999994,110.97499999999994,1,0
1596861240,69.47656249999994,75.00004882812493,75.03124999999993,110.98906249999995,1,0
1596861300,69.61718749999994,75.00004882812493,74.89062499999993,110.91874999999993,1,0
1596861360,69.61249999999993,75.00004882812493,74.99999999999993,110.94999999999992,1,0
1596861420,69.64999999999993,75.00004882812493,74.91249999999994,110.99999999999994,1,0
1596861480,69.65374999999993,75.00004882812493,74.74999999999993,110.95249999999992,1,0
1596861540,69.57499999999993,75.00004882812493,74.72499999999992,110.93749999999993,1,0
1596861600,69.71249999999992,75.00004882812493,74.73749999999993,110.96249999999992,1,0
1596861660,69.69999999999993,75.00004882812493,74.76249999999995,110.96249999999992,1,0
1596861720,69.78749999999995,75.00004882812493,74.83749999999993,110.93749999999993,1,0
1596861780,69.79999999999993,75.00004882812493,74.87374999999993,110.91874999999993,1,0
1596861840,69.77499999999993,75.00004882812493,74.93749999999994,110.96249999999993,1,0
1596861900,69.85624999999993,75.00004882812493,75.17749999999992,111.00874999999994,1,0
1596861960,69.78749999999995,75.00004882812493,75.22499999999992,110.98749999999994,1,0
1596862020,69.84999999999994,75.00004882812493,75.36249999999994,111.04999999999994,1,0
1596862080,69.84999999999994,75.00004882812493,75.33749999999992,111.09999999999994,1,0
1596862140,69.88749999999993,75.00004882812493,75.48749999999994,111.12499999999994,1,0
1596862200,69.87874999999994,75.00004882812493,75.52624999999993,111.09874999999995,1,0
1596862260,69.91249999999994,75.00004882812493,75.63749999999993,111.09999999999995,1,0
1596862320,69.94999999999992,75.00004882812493,75.68749999999994,111.11249999999993,1,0
1596862380,69.91249999999994,75.00004882812493,75.74843749999994,111.28437499999993,1,0
1596862440,69.89999999999995,75.00004882812493,75.73749999999993,111.21249999999992,1,0
1596862500,69.95468749999993,75.00004882812493,75.72031249999992,111.27031249999993,1,0
1596862560,70.07499999999993,75.00004882812493,75.68749999999993,111.21249999999992,1,0
1596862620,70.03749999999994,75.00004882812493,75.68749999999994,111.34999999999994,1,0
1596862680,70.11249999999993,75.00004882812493,75.76249999999992,111.36249999999993,1,0
1596862740,70.05874999999993,75.00004882812493,75.80749999999993,111.39124999999993,1,0
1596862800,70.08749999999992,75.00004882812493,75.78749999999994,111.38749999999992,1,0
1596862860,70.04999999999993,75.00004882812493,75.69999999999993,111.47499999999992,1,0
1596862920,70.12624999999993,75.00004882812493,75.82999999999993,111.45874999999994,1,0
1596862980,70.03749999999992,75.00004882812493,75.72499999999995,111.52499999999993,1,0
1596863040,70.19374999999994,75.00004882812493,75.95374999999993,111.54874999999993,1,0
1596863100,70.16249999999992,75.00004882812493,76.01249999999992,111.53749999999994,1,0
1596863160,70.11249999999994,75.00004882812493,76.01249999999995,111.59999999999995,1,0
1596863220,70.18249999999993,75.00004882812493,75.97624999999994,111.61624999999995,1,0
1596863280,70.18749999999993,75.00004882812493,76.02499999999992,111.62499999999994,1,0
1596863340,70.26124999999993,75.00004882812493,76.07749999999993,111.67249999999994,1,0
1596863400,70.27499999999995,75.00004882812493,76.03749999999994,111.67499999999994,1,0
1596863460,70.28374999999993,75.00004882812493,76.13374999999994,111.78499999999993,1,0
1596863520,70.33749999999993,75.00004882812493,76.08749999999995,111.77499999999993,1,0
1596863580,70.32874999999994,75.00004882812493,76.22374999999992,111.63874999999993,1,0
1596863640,70.39999999999993,75.00004882812493,76.21249999999992,111.74999999999994,1,0
1596863700,70.38749999999995,75.00004882812493,76.04999999999994,111.78749999999994,1,0
1596863760,70.42499999999993,75.00004882812493,75.81249999999994,111.77499999999992,1,0
1596863820,70.44687499999993,75.00004882812493,75.64999999999993,111.86093749999992,1,0
1596863880,70.46249999999993,75.00004882812493,75.36249999999993,111.89999999999992,1,0
1596863940,70.44999999999995,75.00004882812493,75.12499999999994,111.88749999999995,1,0
1596864000,70.46249999999993,75.00004882812493,74.99999999999994,111.92499999999993,1,0
1596864060,70.39062499999994,75.00004882812493,75.14374999999994,111.91718749999993,1,0
1596864120,70.48749999999993,75.00004882812493,75.17499999999994,111.94999999999992,1,0
1596864180,70.59874999999992,75.00004882812493,75.22249999999994,111.99874999999993,1,0
1596864240,70.62124999999995,75.00004882812493,75.27874999999993,111.97624999999994,1,0
1596864300,70.62499999999994,75.00004882812493,75.54999999999994,111.99999999999993,1,0
1596864360,70.62124999999995,75.00004882812493,75.48124999999993,112.06624999999993,1,0
1596864420,70.58749999999993,75.00004882812493,75.57499999999993,112.08749999999993,1,0
1596864480,70.60999999999993,75.00004882812493,75.75124999999994,112.17874999999995,1,0
1596864540,70.61249999999994,75.00004882812493,75.79999999999993,112.13749999999995,1,0
1596864600,70.61249999999993,75.00004882812493,75.77499999999993,112.17499999999993,1,0
1596864660,70.65499999999993,75.00004882812493,75.80749999999993,112.20124999999993,1,0
1596864720,70.74999999999993,75.00004882812493,75.91249999999992,112.21249999999993,1,0
1596864780,70.75624999999994,75.00004882812493,75.88624999999995,112.21249999999995,1,0
1596864840,70.73374999999993,75.00004882812493,75.93124999999993,112.20124999999993,1,0
1596864900,70.76249999999993,75.00004882812493,75.99999999999994,112.13749999999995,1,0
1596864960,70.75624999999994,75.00004882812493,75.97624999999994,112.30249999999994,1,0
1596865020,70.79999999999993,75.00004882812493,76.01249999999992,112.27499999999993,1,0
1596865080,70.85749999999993,75.00004882812493,76.02124999999992,112.22374999999992,1,0
1596865140,70.82499999999995,75.00004882812493,76.22499999999994,112.26249999999995,1,0
1596865200,70.86874999999995,75.00004882812493,76.21249999999995,112.34749999999993,1,0
1596865260,70.81249999999994,75.00004882812493,76.29999999999993,112.39999999999992,1,0
1596865320,70.94999999999993,75.00004882812493,76.23749999999994,112.39999999999992,1,0
1596865380,70.87999999999992,75.00004882812493,76.27999999999993,112.39249999999993,1,0
1596865440,71.02499999999993,75.00004882812493,76.24999999999994,112.36249999999994,1,0
1596865500,71.00374999999993,75.00004882812493,76.27999999999994,112.43749999999993,1,0
1596865560,71.01249999999995,75.00004882812493,76.21249999999993,112.38749999999993,1,0
1596865620,71.00374999999993,75.00004882812493,76.31374999999994,112.47124999999994,1,0
1596865680,70.99999999999994,75.00004882812493,76.37499999999994,112.52499999999993,1,0
1596865740,71.06249999999994,75.00004882812493,76.28749999999994,112.52499999999993,1,0
1596865800,71.09374999999994,75.00004882812493,76.27999999999994,112.53874999999991,1,0
1596865860,71.06249999999993,75.00004882812493,76.24999999999994,112.64999999999992,1,0
1596865920,71.12499999999994,75.00004882812493,76.11249999999994,112.67499999999993,1,0
1596865980,71.17499999999994,75.00004882812493,76.18749999999994,112.63749999999993,1,0
1596866040,71.18749999999994,75.00004882812493,76.19999999999995,112.74999999999994,1,0
1596866100,71.24999999999993,75.00004882812493,76.22499999999992,112.68749999999993,1,0
1596866160,71.26249999999993,75.00004882812493,76.23749999999994,112.71249999999993,1,0
1596866220,71.24999999999994,75.00004882812493,76.31249999999993,112.79999999999995,1,0
1596866280,71.23749999999994,75.00004882812493,76.29999999999993,112.78749999999994,1,0
1596866340,71.32499999999993,75.00004882812493,76.21249999999993,112.78749999999994,1,0
1596866400,71.32499999999993,75.00004882812493,76.33749999999992,112.87499999999993,1,0
1596866460,71.37499999999994,75.00004882812493,76.29999999999993,112.88749999999993,1,0
1596866520,71.29999999999993,75.00004882812493,76.27499999999993,112.87499999999993,1,0
1596866580,71.34999999999995,75.00004882812493,76.34999999999992,112.89999999999992,1,0
1596866640,71.38749999999993,75.00004882812493,76.37499999999994,112.89999999999992,1,0
1596866700,71.43749999999994,75.00004882812493,76.39999999999992,112.91249999999992,1,0
1596866760,71.43749999999994,75.00004882812493,76.18749999999994,112.98749999999991,1,0
1596866820,71.46499999999995,75.00004882812493,76.03249999999994,113.04499999999992,1,0
1596866880,71.50156249999995,75.00004882812493,76.00156249999993,112.98593749999993,1,0
1596866940,71.53749999999992,75.00004882812493,76.08749999999993,113.09999999999992,1,0
1596867000,71.44999999999993,75.00004882812493,76.03749999999994,113.08749999999992,1,0
1596867060,71.52124999999994,75.00004882812493,76.02124999999992,113.16874999999993,1,0
1596867120,71.57499999999995,75.00004882812493,76.02499999999992,113.11249999999994,1,0
1596867180,71.68749999999994,75.00004882812493,76.13749999999995,113.13749999999993,1,0
1596867240,71.67874999999994,75.00004882812493,76.27999999999993,113.20249999999994,1,0
1596867300,71.62499999999993,75.00004882812493,76.38749999999993,113.31249999999994,1,0
1596867360,71.67874999999994,75.00004882812493,76.25749999999992,113.30374999999995,1,0
1596867420,71.69999999999993,75.00004882812493,76.42499999999994,113.29999999999994,1,0
1596867480,71.68999999999994,75.00004882812493,76.34749999999994,113.34874999999992,1,0
1596867540,71.76249999999993,75.00004882812493,76.46249999999993,113.31249999999993,1,0
1596867600,71.71249999999993,75.00004882812493,76.49999999999994,113.41249999999994,1,0
1596867660,71.76249999999993,75.00004882812493,76.62499999999993,113.34999999999994,1,0
1596867720,71.78749999999994,75.00004882812493,76.64999999999992,113.47499999999992,1,0
1596867780,71.86249999999993,75.00004882812493,76.51249999999993,113.46249999999992,1,0
1596867840,71.82499999999993,75.00004882812493,76.49999999999994,113.48749999999993,1,0
1596867900,71.81093749999994,75.00004882812493,76.64843749999993,113.43593749999992,1,0
1596867960,71.86249999999993,75.00004882812493,76.69999999999993,113.46249999999993,1,0
1596868020,71.88749999999993,75.00004882812493,76.54999999999993,113.62499999999993,1,0
1596868080,71.92624999999994,75.00004882812493,76.53874999999992,113.60749999999993,1,0
1596868140,72.01249999999993,75.00004882812493,76.66249999999994,113.61249999999994,1,0
1596868200,71.95999999999994,75.00004882812493,76.72999999999993,113.64124999999993,1,0
1596868260,71.92499999999993,75.00004882812493,76.76249999999995,113.59999999999992,1,0
1596868320,72.02749999999995,75.00004882812493,76.76374999999993,113.7312499999999,1,0
1596868380,71.99999999999994,75.00004882812493,76.86249999999994,113.69999999999992,1,0
1596868440,72.01249999999993,75.00004882812493,76.82499999999995,113.69999999999992,1,0
1596868500,72.08749999999992,75.00004882812493,76.81249999999994,113.73749999999993,1,0
1596868560,72.09999999999994,75.00004882812493,76.91249999999994,113.84999999999994,1,0
1596868620,72.19999999999992,75.00004882812493,76.78749999999994,113.84999999999994,1,0
1596868680,72.17656249999993,75.00004882812493,76.85937499999993,113.81562499999994,1,0
1596868740,72.09499999999994,75.00004882812493,76.86499999999992,113.91124999999995,1,0
1596868800,72.21249999999992,75.00004882812493,76.93749999999993,113.83749999999992,1,0
1596868860,72.18749999999994,75.00004882812493,76.88749999999995,113.83749999999993,1,0
1596868920,72.19999999999995,75.00004882812493,76.73749999999994,113.91249999999994,1,0
1596868980,72.28749999999994,75.00004882812493,76.71249999999992,113.97499999999991,1,0
1596869040,72.19999999999993,75.00004882812493,76.74999999999994,113.99999999999994,1,0
1596869100,72.24999999999994,75.00004882812493,76.79999999999993,114.07499999999992,1,0
1596869160,72.21249999999993,75.00004882812493,76.89999999999992,114.06249999999993,1,0
1596869220,72.27499999999992,75.00004882812493,76.92499999999994,114.12499999999994,1,0
1596869280,72.31999999999992,75.00004882812493,76.90999999999994,114.14749999999992,1,0
1596869340,72.28749999999994,75.00004882812493,76.93749999999993,114.16249999999994,1,0
1596869400,72.31249999999994,75.00004882812493,77.08749999999993,114.17499999999993,1,0
1596869460,72.44374999999994,75.00004882812493,77.07874999999993,114.19249999999992,1,0
1596869520,72.39999999999992,75.00004882812493,77.12499999999994,114.24999999999993,1,0
1596869580,72.42499999999994,75.00004882812493,77.11249999999994,114.21249999999992,1,0
1596869640,72.52812499999995,75.00004882812493,77.12656249999993,114.27968749999992,1,0
1596869700,72.47499999999994,75.00004882812493,77.08749999999992,114.33749999999993,1,0
1596869760,72.47499999999994,75.00004882812493,77.12499999999994,114.33749999999993,1,0
1596869820,72.45781249999993,75.00004882812493,77.01406249999994,114.36406249999993,1,0
1596869880,72.56249999999994,75.00004882812493,76.89999999999992,114.39999999999993,1,0
1596869940,72.62499999999994,75.00004882812493,76.69999999999993,114.43749999999993,1,0
1596870000,72.64999999999993,75.00004882812493,76.64999999999993,114.39999999999993,1,0
1596870060,72.59999999999994,75.00004882812493,76.61249999999991,114.43749999999994,1,0
1596870120,72.66874999999993,75.00004882812493,76.61749999999992,114.46249999999993,1,0
1596870180,72.68749999999993,75.00004882812493,76.56249999999994,114.49999999999993,1,0
1596870240,72.75874999999994,75.00004882812493,76.67374999999996,114.56374999999994,1,0
1596870300,72.69999999999993,75.00004882812493,76.74999999999994,114.54999999999993,1,0
1596870360,72.72499999999994,75.00004882812493,76.87499999999993,114.59999999999991,1,0
1596870420,72.76249999999993,75.00004882812493,76.86249999999993,114.62499999999993,1,0
1596870480,72.77499999999992,75.00004882812493,76.88749999999993,114.58749999999993,1,0
1596870540,72.82499999999993,75.00004882812493,76.93749999999994,114.59999999999994,1,0
1596870600,72.82499999999993,75.00004882812493,77.03749999999992,114.68749999999993,1,0
1596870660,72.78749999999994,75.00004882812493,77.03749999999994,114.57499999999992,1,0
1596870720,72.88749999999993,75.00004882812493,77.13749999999993,114.62499999999994,1,0
1596870780,72.86249999999993,75.00004882812493,76.97499999999995,114.68749999999993,1,0
1596870840,72.78749999999992,75.00004882812493,76.82499999999993,114.73749999999993,1,0
1596870900,72.86249999999994,75.00004882812493,76.71249999999993,114.74999999999993,1,0
1596870960,72.86562499999992,75.00004882812493,76.60624999999995,114.75781249999991,1,0
1596871020,72.96249999999992,75.00004882812493,76.58749999999993,114.7374999999999,1,0
1596871080,73.04999999999993,75.00004882812493,76.86249999999993,114.79999999999993,1,0
1596871140,72.99999999999993,75.00004882812493,76.92499999999993,114.87499999999993,1,0
1596871200,72.99999999999994,75.00004882812493,76.97499999999994,114.84999999999994,1,0
1596871260,73.04999999999994,75.00004882812493,77.03749999999995,114.93749999999993,1,0
1596871320,73.02031249999993,75.00004882812493,77.12656249999993,114.95468749999995,1,0
1596871380,73.11249999999994,75.00004882812493,77.24999999999993,114.99999999999994,1,0
1596871440,73.16249999999994,75.00004882812493,77.23749999999994,115.01249999999995,1,0
1596871500,73.13749999999993,75.00004882812493,77.27499999999993,115.01249999999995,1,0
1596871560,73.22499999999994,75.00004882812493,77.34999999999994,115.01249999999992,1,0
1596871620,73.14999999999993,75.00004882812493,77.31249999999994,115.01249999999995,1,0
1596871680,73.27499999999993,75.00004882812493,77.36249999999993,115.02499999999993,1,0
1596871740,73.14999999999992,75.00004882812493,77.28749999999994,115.06249999999994,1,0
1596871800,73.32499999999993,75.00004882812493,77.27499999999993,115.13749999999992,0.7777777777777778,0
1596871860,73.38749999999993,75.00004882812493,77.36249999999993,115.04999999999993,0.4444444444444444,0
1596871920,73.32124999999995,75.00004882812493,77.44999999999992,114.96874999999993,0.5,0
1596871980,73.34374999999994,75.00004882812493,77.37124999999993,114.83374999999992,0.4,0
1596872040,73.37187499999993,75.00004882812493,77.42187499999993,114.64531249999992,0.5,0
1596872100,73.41124999999994,75.00004882812493,77.37124999999993,114.40624999999993,0.4,0
1596872160,73.37499999999994,75.00004882812493,77.37499999999994,114.09999999999994,0.3333333333333333,0
1596872220,73.45624999999993,75.00004882812493,77.33749999999993,113.82124999999994,0.5,0